Home > Weather > Salinas > Past weeks

Flag for USA Weather for the Past 2 Weeks in Salinas, California, USA

Now
57 °F

Overcast.


Feels Like: 56 °F
Forecast: 49 / 70 °F
Wind: 6 mph from West

Location: Salinas Municipal Airport

Current Time: May 1, 2016 at 11:54:23 PM

Latest Report: May 1, 2016 at 10:53 PM


Visibility: 7 mi

Pressure: 30.01 "Hg

Humidity: 81%

Dew Point: 51 °F

Location of SalinasLocation

Historic Weather in Salinas — Graph

°F

Salinas Temperature Yesterday

Maximum temperature yesterday: 71 °F (at 12:53 PM)
Minimum temperature yesterday: 49 °F (at 5:53 AM)
Average temperature yesterday: 61 °F

High & Low Weather Summary for the Past Weeks

 TemperatureHumidityPressure
High87 °F (Apr 18, 1:53 PM)90% (Apr 21, 3:53 AM)30.23 "Hg (Apr 21, 3:53 AM)
Low43 °F (Apr 26, 6:53 AM)12% (Apr 18, 1:53 PM)29.84 "Hg (Apr 30, 4:53 PM)
Average59 °F63%30.02 "Hg
* Reported Apr 16 9:53 PM — May 1 9:53 PM, Salinas, Weather by CustomWeather, © 2016

Note: Actual official high and low records may vary slightly from our data, if they occured in-between our weather recording intervals... More about our weather records

Advertising

Salinas Weather History for the Previous 24 Hours

Scroll right to see more
 ConditionsComfort  
Time TempWeatherWind HumidityBarometerVisibility
9:53 PM
Sun, May 1
57 °FOvercast.6 mph81%30.00 "Hg7 mi
8:53 PM57 °FLow clouds.10 mph81%29.98 "Hg7 mi
7:53 PM57 °FOvercast.12 mph81%29.95 "Hg6 mi
6:53 PM59 °FOvercast.17 mph75%29.92 "Hg5 mi
5:53 PM62 °FScattered clouds.18 mph67%29.91 "Hg6 mi
4:53 PM66 °FSunny.17 mph59%29.89 "Hg7 mi
3:53 PM70 °FSunny.21 mph47%29.88 "Hg9 mi
2:53 PM75 °FSunny.18 mph39%29.87 "Hg10 mi
1:53 PM79 °FSunny.18 mph31%29.86 "Hg10 mi
12:53 PM76 °FSunny.15 mph36%29.85 "Hg10 mi
11:53 AM80 °FSunny.5 mph26%29.85 "Hg10 mi
10:53 AM76 °FSunny.16 mph32%29.85 "Hg10 mi
9:53 AM69 °FSunny.17 mph42%29.85 "Hg10 mi
8:53 AM62 °FSunny.18 mph50%29.85 "Hg10 mi
7:53 AM56 °FSunny.15 mph60%29.86 "Hg10 mi
6:53 AM52 °FClear.10 mph69%29.85 "Hg10 mi
5:53 AM47 °FClear.9 mph83%29.84 "Hg10 mi
4:53 AM48 °FClear.6 mph83%29.85 "Hg8 mi
3:53 AM49 °FClear.No wind84%29.85 "Hg8 mi
2:53 AM49 °FClear.7 mph84%29.84 "Hg7 mi
1:53 AM53 °FClear.No wind77%29.85 "Hg7 mi
12:53 AM54 °FClear.6 mph77%29.87 "Hg7 mi
11:53 PM
Sat, Apr 30
56 °FClear.5 mph70%29.86 "Hg7 mi
Weather by CustomWeather, © 2016

See weather overviewHow to use our weather pages